Погода в Усть-Хоперской

Россия / Волгоградская область     49°34′30″N   42°23′37″E
темп.,
°C
ветер,
м/с
пор.,
м/с
влажн.,
%
обл.,
%
осадки,
мм/ч
давл.,
гПа
погр.,
м
26 сентября, вс
вс2600:00+9зюз36925 0.0 1013108
03:00+9юз510875 0.0 1012210
06:00+9юз51284100 0.0 1011335
09:00+10юз81488100 0.5 1010735
12:00+11зюз8138887 1.1 1008690
15:00+15зсз8136123 2.1 10061557
18:00+13зсз8146577 0.2 1007812
21:00+11зсз813735 0.3 1008954
27 сентября, пн
пн2700:00+9зсз713795 0.0 1009714
03:00+9зсз71281100 0.0 1009807
06:00+9зсз8128270 0.0 1010883
09:00+10зсз71282100 0.1 1011834
12:00+10сз6108486 0.1 1012745
15:00+12ссз7972100 0.4 1013912
18:00+11ссз59827 0.1 1015378
21:00+9ссз48895 0.1 1016225
28 сентября, вт
вт2800:00+7сз359427 0.0 1017113
03:00+8ссз349452 0.0 101782
06:00+7с369459 0.0 1018131
09:00+10с457697 0.0 1019574
12:00+12с455881 0.0 10201269
15:00+12с555490 0.1 10211422
18:00+8св6780100 0.1 1023652
21:00+7св5779100 0.2 1025922
29 сентября, ср
ср2900:00+7св5768100 0.0 1026842
03:00+6ссв4774100 0.0 1027556
06:00+6ссв477375 0.0 1028617
09:00+8ссв6851100 0.0 10281489
12:00+10ссв5640100 0.0 10281719
15:00+11ссв673650 0.0 10281939
18:00+9ссв484219 0.0 1029247
21:00+6ссв395085 0.0 1030221
30 сентября, чт
чт3000:00+5св22595 0.0 103118
03:00+4ссв22661 0.0 103127
06:00+3ссв22675 0.0 103333
09:00+7св34490 0.0 1034424
12:00+11св44375 0.0 10331679
15:00+12ссв44345 0.0 10331882
18:00+9ссв35425 0.0 103388
21:00+7ссв22495 0.0 103431